TimeMDT,TemperatureF,Dew PointF,Humidity,Sea Level PressureIn,VisibilityMPH,Wind Direction,Wind SpeedMPH,Gust SpeedMPH,PrecipitationIn,Events,Conditions,WindDirDegrees,DateUTC
12:15 AM,51.8,28.4,41,29.96,10.0,ENE,8.1,-,N/A,,Mostly Cloudy,70,2013-06-24 06:15:00
12:35 AM,53.6,28.4,38,29.95,10.0,Calm,Calm,-,N/A,,Overcast,0,2013-06-24 06:35:00
12:55 AM,51.8,26.6,38,29.95,10.0,Calm,Calm,-,N/A,,Scattered Clouds,0,2013-06-24 06:55:00
1:15 AM,50.0,30.2,47,29.95,10.0,NW,6.9,-,N/A,,Clear,310,2013-06-24 07:15:00
1:35 AM,46.4,28.4,50,29.95,10.0,West,5.8,-,N/A,,Clear,280,2013-06-24 07:35:00
1:55 AM,46.4,28.4,50,29.95,10.0,West,5.8,-,N/A,,Clear,270,2013-06-24 07:55:00
2:15 AM,46.4,28.4,50,29.93,10.0,WNW,4.6,-,N/A,,Mostly Cloudy,300,2013-06-24 08:15:00
2:35 AM,44.6,30.2,57,29.93,10.0,WNW,6.9,-,N/A,,Overcast,290,2013-06-24 08:35:00
2:55 AM,42.8,30.2,61,29.93,10.0,NW,4.6,-,N/A,,Scattered Clouds,310,2013-06-24 08:55:00
3:15 AM,44.6,32.0,61,29.93,10.0,NW,5.8,-,N/A,,Clear,310,2013-06-24 09:15:00
3:35 AM,42.8,30.2,61,29.93,10.0,NW,4.6,-,N/A,,Scattered Clouds,320,2013-06-24 09:35:00
3:55 AM,42.8,32.0,66,29.91,10.0,NNW,5.8,-,N/A,,Mostly Cloudy,340,2013-06-24 09:55:00
4:15 AM,41.0,32.0,70,29.92,10.0,WSW,4.6,-,N/A,,Scattered Clouds,240,2013-06-24 10:15:00
4:35 AM,42.8,32.0,66,29.91,10.0,West,3.5,-,N/A,,Scattered Clouds,260,2013-06-24 10:35:00
4:55 AM,42.8,32.0,66,29.91,10.0,WNW,5.8,-,N/A,,Scattered Clouds,300,2013-06-24 10:55:00
5:15 AM,41.0,32.0,70,29.92,10.0,NW,5.8,-,N/A,,Scattered Clouds,310,2013-06-24 11:15:00
5:35 AM,41.0,32.0,70,29.92,10.0,West,3.5,-,N/A,,Scattered Clouds,270,2013-06-24 11:35:00
5:55 AM,42.8,32.0,66,29.92,10.0,WNW,3.5,-,N/A,,Clear,300,2013-06-24 11:55:00
6:15 AM,42.8,32.0,66,29.93,10.0,Calm,Calm,-,N/A,,Mostly Cloudy,0,2013-06-24 12:15:00
6:35 AM,41.0,32.0,70,29.93,10.0,West,4.6,-,N/A,,Scattered Clouds,280,2013-06-24 12:35:00
6:55 AM,42.8,33.8,70,29.95,10.0,NW,5.8,-,N/A,,Scattered Clouds,310,2013-06-24 12:55:00
7:15 AM,46.4,33.8,62,29.95,10.0,WNW,3.5,-,N/A,,Scattered Clouds,290,2013-06-24 13:15:00
7:35 AM,46.4,35.6,66,29.95,10.0,NW,3.5,-,N/A,,Clear,310,2013-06-24 13:35:00
7:55 AM,50.0,32.0,50,29.95,10.0,Calm,Calm,-,N/A,,Clear,0,2013-06-24 13:55:00
8:15 AM,55.4,33.8,44,29.95,10.0,Calm,Calm,-,N/A,,Clear,0,2013-06-24 14:15:00
8:35 AM,59.0,32.0,36,29.95,10.0,Calm,Calm,-,N/A,,Clear,0,2013-06-24 14:35:00
8:55 AM,60.8,32.0,34,29.95,10.0,East,3.5,-,N/A,,Clear,100,2013-06-24 14:55:00
9:15 AM,62.6,30.2,30,29.94,10.0,East,3.5,-,N/A,,Clear,90,2013-06-24 15:15:00
9:35 AM,64.4,28.4,26,29.93,10.0,ESE,9.2,-,N/A,,Clear,110,2013-06-24 15:35:00
9:55 AM,68.0,28.4,23,29.93,10.0,ESE,9.2,-,N/A,,Clear,110,2013-06-24 15:55:00
10:15 AM,69.8,26.6,20,29.92,10.0,East,11.5,-,N/A,,Clear,100,2013-06-24 16:15:00
10:35 AM,71.6,26.6,19,29.92,10.0,ESE,12.7,-,N/A,,Scattered Clouds,110,2013-06-24 16:35:00
10:55 AM,73.4,23.0,15,29.92,10.0,SSE,12.7,18.4,N/A,,Scattered Clouds,150,2013-06-24 16:55:00
11:15 AM,69.8,23.0,17,29.92,10.0,South,10.4,-,N/A,,Mostly Cloudy,170,2013-06-24 17:15:00
11:35 AM,69.8,23.0,17,29.92,10.0,SSW,10.4,-,N/A,,Scattered Clouds,200,2013-06-24 17:35:00
11:55 AM,73.4,23.0,15,29.92,10.0,South,11.5,17.3,N/A,,Scattered Clouds,180,2013-06-24 17:55:00
12:15 PM,75.2,24.8,15,29.91,10.0,SSW,9.2,18.4,N/A,,Mostly Cloudy,200,2013-06-24 18:15:00
12:35 PM,75.2,23.0,14,29.90,10.0,SSW,18.4,28.8,N/A,,Scattered Clouds,200,2013-06-24 18:35:00
12:55 PM,73.4,23.0,15,29.89,10.0,South,19.6,26.5,N/A,,Scattered Clouds,180,2013-06-24 18:55:00
1:15 PM,77.0,23.0,13,29.89,10.0,SSW,17.3,26.5,N/A,,Scattered Clouds,200,2013-06-24 19:15:00
1:35 PM,77.0,19.4,12,29.88,10.0,SSW,23.0,32.2,N/A,,Scattered Clouds,210,2013-06-24 19:35:00
1:55 PM,77.0,19.4,12,29.88,10.0,SSW,24.2,38.0,N/A,,Clear,210,2013-06-24 19:55:00
2:15 PM,75.2,21.2,13,29.88,10.0,WSW,15.0,31.1,N/A,,Clear,240,2013-06-24 20:15:00
2:35 PM,77.0,23.0,13,29.87,10.0,WSW,17.3,32.2,N/A,,Clear,240,2013-06-24 20:35:00
2:55 PM,77.0,21.2,12,29.88,10.0,SW,19.6,29.9,N/A,,Scattered Clouds,220,2013-06-24 20:55:00
3:15 PM,77.0,21.2,12,29.88,10.0,SW,13.8,27.6,N/A,,Scattered Clouds,220,2013-06-24 21:15:00
3:35 PM,75.2,21.2,13,29.87,10.0,SW,23.0,29.9,N/A,,Scattered Clouds,230,2013-06-24 21:35:00
3:55 PM,75.2,21.2,13,29.87,10.0,SSW,17.3,28.8,N/A,,Clear,200,2013-06-24 21:55:00
4:15 PM,73.4,23.0,15,29.88,10.0,SW,16.1,26.5,N/A,,Clear,220,2013-06-24 22:15:00
4:35 PM,73.4,24.8,16,29.88,10.0,SW,19.6,26.5,N/A,,Clear,230,2013-06-24 22:35:00
4:55 PM,75.2,24.8,15,29.88,10.0,WSW,12.7,20.7,N/A,,Clear,240,2013-06-24 22:55:00
5:15 PM,73.4,24.8,16,29.88,10.0,SSW,15.0,25.3,N/A,,Scattered Clouds,210,2013-06-24 23:15:00
5:35 PM,71.6,24.8,17,29.88,10.0,SW,11.5,20.7,N/A,,Scattered Clouds,230,2013-06-24 23:35:00
5:55 PM,71.6,24.8,17,29.88,10.0,SW,15.0,25.3,N/A,,Scattered Clouds,230,2013-06-24 23:55:00
6:15 PM,71.6,24.8,17,29.88,10.0,WSW,19.6,25.3,N/A,,Scattered Clouds,240,2013-06-25 00:15:00
6:35 PM,71.6,26.6,19,29.88,10.0,WSW,11.5,21.9,N/A,,Clear,240,2013-06-25 00:35:00
6:55 PM,69.8,23.0,17,29.88,10.0,SW,18.4,23.0,N/A,,Clear,230,2013-06-25 00:55:00
7:15 PM,69.8,26.6,20,29.89,10.0,WSW,21.9,27.6,N/A,,Scattered Clouds,240,2013-06-25 01:15:00
7:35 PM,68.0,28.4,23,29.91,10.0,WSW,20.7,27.6,N/A,,Mostly Cloudy,250,2013-06-25 01:35:00
7:55 PM,66.2,28.4,24,29.92,10.0,SW,17.3,39.1,N/A,,Overcast,230,2013-06-25 01:55:00
8:15 PM,66.2,28.4,24,29.93,10.0,WSW,11.5,21.9,N/A,,Overcast,250,2013-06-25 02:15:00
8:35 PM,64.4,28.4,26,29.93,10.0,SW,12.7,19.6,N/A,,Overcast,230,2013-06-25 02:35:00
8:55 PM,64.4,28.4,26,29.93,10.0,WSW,13.8,19.6,N/A,,Overcast,240,2013-06-25 02:55:00
9:15 PM,64.4,30.2,28,29.95,10.0,WSW,13.8,24.2,N/A,,Overcast,240,2013-06-25 03:15:00
9:35 PM,62.6,30.2,30,29.97,10.0,WSW,18.4,-,N/A,,Overcast,240,2013-06-25 03:35:00
9:55 PM,60.8,32.0,34,29.99,10.0,West,11.5,24.2,N/A,,Overcast,270,2013-06-25 03:55:00
10:15 PM,60.8,32.0,34,30.00,10.0,West,6.9,-,N/A,,Overcast,260,2013-06-25 04:15:00
10:35 PM,59.0,33.8,39,30.01,10.0,WSW,8.1,-,N/A,,Overcast,250,2013-06-25 04:35:00
10:55 PM,59.0,33.8,39,30.01,10.0,WSW,10.4,-,N/A,,Overcast,250,2013-06-25 04:55:00
11:15 PM,57.2,41.0,55,30.03,10.0,West,18.4,25.3,N/A,,Drizzle,270,2013-06-25 05:15:00
11:35 PM,51.8,44.6,76,30.05,10.0,WNW,11.5,-,N/A,Rain,Light Rain,290,2013-06-25 05:35:00
11:55 PM,51.8,46.4,82,30.05,10.0,NW,6.9,-,N/A,Rain,Light Rain,310,2013-06-25 05:55:00